STARLINK-4462, 53781

Orbit data source: Space-Track

STARLINK-4462, 53781 is a payload satellite owned by SpaceX/Seattle (US) in LEO that was launched on Sun, 11 Sep 2022 UTC via an FALCON 9 launch vehicle from the Air Force Eastern Test Range (AFETR). Payload-class satellites include a variety of spacecraft equipped with specific instruments for various scientific and technological missions. These include communications satellites like Starlink; space stations such as the ISS; scientific satellites like the Hubble; Earth observation satellites from companies like Planet Labs, Umbra, and HawkEye 360; GPS; miniature CubeSats for education and research; and military/defense satellites.

Loading next visibility...
Identifier
53781, 2022-111J
Orbit
LEO
Country
Flag of USUS
Related business
Manufacturer
SpaceX/Seattle
Mission
Operational Commercial Communications
Bus & Motor
STARLINK, Unknown motor
Mass
305 kg wet, ~290 kg dry
Launch date (UTC)
2022-09-11 (4 years ago)
Launch vehicle
FALCON 9
Launch site
Air Force Eastern Test Range (AFETR)
Object type
Payload
Rocket body
Debris
Shape & HBR
Box + 1 Pan, 10.1 m
Radar Cross Section
13.562 m², Large (>1 m²)

Expand to show TLE details & history
Last TLE update: 9 hours ago

TLE from 9 hours ago
0 STARLINK-4462
1 53781U 22111J   26127.95769013 -.00001906  00000-0 -10172-3 0  9991
2 53781  53.2185   8.0558 0001438  86.1844 273.9313 15.08833092202644
Epoch: 2026-05-07T22:59Z
TLE epoch observation values (Epoch: 2026-05-07T22:59:04.427Z)
Latitude
0.00002°
Longitude
157.491°
Altitude
540.594 km
Speed
7.593 km/s
True Right ascension
00h 32m 13s
True Declination
0° 00' 00"
Sunlit
Object was in daylight at epoch
Visualization orbit readout
Latitude
Unknown
Longitude
Unknown
Altitude
Unknown
Speed
Unknown
Apparent Right ascension
Unknown
Apparent Declination
Unknown
Sunlit
N/A
Visualization observer readout
Local Sidereal Time
16:08:39
Azimuth
Unknown
Elevation
Unknown
Doppler factor
Unknown
Orbital elements
Apogee altitude
541.004 km
Perigee altitude
539.014 km
Semi-major axis
6,918.146 km
Eccentricity
0.00014
Inclination
53.2185°
RAAN
8.0558°
Arg. of periapsis
86.1844°
True anomaly
273.91486°
Mean anomaly
273.9313°
Eccentric anomaly
273.92308°
Mean motion
3.77189 °/min
Orbital period
95.44 mins
BSTAR
-0.00010172
Loading maneuver chart data...
Computing Atmospheric mass density...
Loading historical data...
Loading historical data...
Loading historical data...
Loading historical data...
Loading historical data...
Loading historical data...
Loading historical data...

Documentation

Showing up to 5 results
|